Wind_Speed
11 11 12 12 12 13 13 13 14 14 14 14 13 13 14 15 16 18 21 14 10 11 15 9 3 1 3 4 6 5 4 3 4 5 2 8 3 10 1 5 6 7 13 14 17
12 12 12 12 13 13 14 14 14 14 14 14 14 14 15 16 17 20 11 10 12 10 10 11 6 4 3 2 5 5 4 7 8 7 4 12 9 17 4 7 8 21 16 21 27
12 13 13 14 14 14 14 15 15 15 15 14 14 14 15 15 17 1 2 1 8 14 11 7 5 3 2 3 5 6 6 4 4 11 8 17 13 16 8 8 23 34 25 31 33
13 13 14 14 15 15 15 15 15 15 15 15 14 14 13 11 4 4 2 4 2 13 14 9 5 6 3 4 6 2 13 12 9 5 9 15 21 10 23 16 29 17 30 34 38
14 15 15 15 16 16 16 16 15 16 15 14 13 13 12 9 17 8 7 1 4 12 14 11 10 8 3 4 2 5 5 8 16 17 15 21 28 13 34 37 15 21 32 37 39
14 15 16 17 17 17 16 15 16 16 15 14 12 12 11 8 7 5 9 4 6 9 14 14 7 7 4 3 2 3 12 18 11 20 6 20 10 14 34 36 23 30 34 37 39
15 15 15 16 17 17 17 15 15 15 14 13 12 12 15 22 9 2 9 5 5 7 11 14 12 2 5 7 2 5 5 8 7 4 6 14 3 16 26 33 27 36 29 31 35
16 16 16 17 17 17 16 15 14 13 12 10 11 11 12 12 13 16 10 8 6 7 6 7 10 8 5 7 6 4 4 3 6 3 7 9 8 14 29 29 31 36 23 31 30
16 16 17 17 18 18 12 13 11 9 7 8 8 7 12 7 11 16 17 12 9 7 9 3 3 5 5 2 5 7 2 1 8 3 5 6 11 5 29 38 30 26 26 30 31
17 17 17 17 18 14 12 5 6 4 3 7 9 7 10 3 5 6 19 14 12 8 9 7 7 1 3 4 3 2 3 3 4 7 9 14 16 10 28 34 27 22 24 27 40
18 17 17 17 17 11 9 2 5 3 13 11 13 15 21 18 15 6 14 17 15 6 4 4 3 6 7 6 4 1 1 3 11 10 4 8 11 10 5 15 17 26 28 30 33
20 18 17 15 14 6 9 8 11 10 16 22 28 29 30 29 11 8 7 12 9 7 2 3 6 8 4 3 3 3 5 9 10 8 4 9 8 4 6 11 30 28 34 32 31
20 20 18 14 9 2 4 8 9 14 7 19 15 18 25 17 16 24 8 13 4 6 6 7 7 4 4 3 3 3 4 7 7 7 4 5 6 6 5 5 11 12 27 28 36
19 19 18 14 6 10 3 5 8 13 4 7 4 5 10 11 6 26 23 10 3 10 7 6 8 7 4 6 6 6 8 10 6 2 2 2 4 5 4 2 2 5 15 18 25
19 18 17 15 13 9 9 10 10 5 4 2 1 2 7 16 2 8 21 15 8 5 6 7 2 4 6 10 7 11 6 8 7 4 3 2 3 6 4 5 6 8 12 20 29
18 18 19 14 14 10 6 6 1 5 6 6 3 2 3 6 3 3 12 14 11 5 2 7 4 5 7 5 7 7 3 3 4 2 2 4 5 4 6 9 5 6 17 20 24
20 17 18 17 10 7 6 4 4 3 6 5 5 5 4 4 4 3 5 5 6 3 6 6 5 3 3 7 2 4 5 3 4 4 5 4 3 8 3 8 14 19 27 22 21
21 20 16 15 12 9 2 4 3 3 5 5 5 8 1 7 2 4 3 3 2 4 2 6 8 7 4 7 8 6 8 5 6 4 6 4 5 5 6 18 16 17 20 24 23
21 17 15 9 10 13 10 3 7 5 3 7 9 4 6 6 5 1 5 5 9 10 9 6 6 5 5 6 8 2 4 5 5 2 2 4 3 2 6 10 16 20 24 26 26
19 17 4 5 10 17 4 5 4 3 4 3 2 6 5 6 5 7 3 2 3 6 3 4 6 7 9 4 3 6 5 2 3 4 4 4 3 5 4 7 8 15 24 29 29
13 10 6 6 16 12 4 6 4 4 8 4 1 4 2 3 5 3 5 4 3 4 4 5 5 18 2 5 8 1 1 2 4 5 6 3 6 8 12 15 19 21 25 35 35
5 3 7 21 3 1 3 5 2 6 4 4 4 7 5 2 4 3 5 3 11 5 2 1 4 7 13 12 5 6 8 7 4 6 3 4 7 4 13 19 22 22 31 38 38
3 3 13 8 2 2 3 2 3 3 2 3 2 1 1 2 3 6 5 8 15 6 2 2 2 4 11 5 3 5 7 5 3 4 7 5 6 3 10 17 25 27 31 39 39
4 2 3 8 5 6 2 3 2 6 7 8 5 5 4 3 3 4 5 7 22 17 13 4 4 7 7 6 5 5 7 7 7 3 4 8 7 4 8 14 21 29 37 43 41
2 2 1 2 2 3 3 0 2 3 2 5 3 4 3 3 4 2 5 6 12 11 6 3 6 6 7 9 10 17 7 7 9 7 7 12 9 11 15 18 33 46 33 33 38
2 2 3 4 6 1 5 6 6 2 2 3 1 3 2 3 1 3 5 2 6 7 7 6 4 3 7 8 6 7 15 18 8 4 6 6 7 5 9 17 21 34 37 35 38
2 2 3 3 2 1 3 2 3 1 3 3 3 2 4 2 12 19 23 22 16 8 2 3 3 2 6 4 9 7 11 16 11 5 8 7 9 5 3 16 27 32 39 42 48
Wind_Direction
346 341 337 333 329 327 325 322 321 318 315 313 311 309 302 296 291 284 274 279 268 239 236 236 225 198 228 199 194 166 67 244 217 178 185 165 146 165 203 181 194 209 169 163 180
342 337 333 330 327 325 322 320 319 315 313 312 311 309 306 303 298 287 303 263 239 243 228 229 227 220 190 204 184 139 138 226 191 161 174 189 176 167 197 189 209 207 216 221 193
336 332 330 328 325 323 321 319 316 314 311 310 310 309 307 310 311 294 88 46 223 212 206 206 196 170 203 221 197 172 196 236 228 249 222 182 184 176 190 244 206 200 186 172 183
333 330 327 325 322 320 317 316 314 311 308 306 305 305 304 305 287 131 81 27 231 190 200 208 194 162 180 222 209 186 244 256 275 269 169 179 188 216 205 213 206 208 172 174 185
335 332 328 325 322 318 316 314 311 307 306 302 299 298 299 279 258 257 279 282 215 197 197 201 178 168 203 226 274 207 269 273 293 290 246 193 192 187 218 215 250 183 171 181 194
336 334 330 327 323 318 314 311 307 303 302 298 292 288 281 267 279 283 219 238 226 226 211 207 206 211 269 261 192 262 291 293 298 303 208 174 182 185 232 216 233 183 184 186 196
336 335 332 328 324 320 315 311 301 300 298 294 285 279 267 258 290 250 188 209 239 241 241 222 200 205 323 312 322 291 308 327 303 101 158 138 87 228 227 213 209 194 191 193 206
338 336 335 332 328 324 323 310 302 298 294 287 281 280 264 280 249 229 204 209 227 226 236 259 238 242 257 309 329 355 38 25 292 331 178 166 257 227 224 214 211 211 192 199 218
337 338 338 337 334 334 338 320 311 299 294 290 279 272 267 275 278 230 220 220 217 234 221 230 186 242 278 89 7 6 242 306 314 313 145 219 279 227 204 212 215 211 200 209 221
333 336 339 341 337 347 351 355 3 340 319 286 263 294 258 280 345 283 214 226 221 238 251 218 195 151 34 72 235 259 353 321 265 303 357 309 278 280 207 200 207 197 199 211 215
325 329 335 343 338 356 4 338 345 311 303 255 270 255 274 285 303 235 214 208 221 223 180 177 107 212 230 205 204 252 203 279 285 274 258 256 254 287 172 182 187 206 198 211 200
322 322 326 340 339 11 35 74 31 320 295 287 273 259 259 265 296 249 210 196 176 192 150 10 245 226 212 203 222 279 304 286 284 270 139 299 344 31 164 214 204 203 207 206 191
321 320 319 333 332 338 15 27 358 334 276 295 261 252 251 240 231 251 253 220 155 151 180 188 225 124 175 257 260 257 232 276 244 322 298 337 351 353 27 27 224 221 218 212 193
321 322 319 322 311 332 284 291 311 329 359 278 255 266 193 179 239 237 236 215 195 187 161 222 249 233 190 233 167 273 198 246 268 286 226 51 275 315 330 17 332 198 206 197 180
316 315 313 315 305 322 311 311 297 312 338 254 166 342 169 174 144 224 224 216 187 173 136 231 206 188 201 229 151 239 145 224 244 213 108 335 71 281 355 294 253 240 196 189 189
312 312 304 306 301 302 319 327 292 46 256 322 105 104 85 269 237 36 176 210 221 171 223 225 247 167 219 250 171 260 287 77 70 106 53 247 140 265 211 208 235 247 212 192 185
306 305 300 298 287 284 300 357 44 158 322 355 344 341 206 214 262 53 152 147 159 133 256 339 269 250 231 304 341 117 73 320 335 346 217 206 102 230 226 227 202 201 204 199 186
306 304 293 286 274 250 203 53 189 254 266 338 333 314 349 20 296 189 120 218 235 99 111 202 301 200 181 185 214 194 160 160 226 219 244 260 234 253 271 254 216 177 173 188 187
309 307 302 289 235 202 166 115 206 221 316 352 332 15 4 349 37 19 199 224 205 172 184 167 265 272 178 190 149 249 200 207 129 355 53 232 284 286 15 62 116 138 161 176 181
317 321 305 320 182 171 104 223 235 233 8 345 323 27 355 326 22 23 301 281 235 204 9 265 273 237 257 159 240 168 176 16 348 155 241 283 261 236 222 171 159 160 169 181 187
319 321 326 155 152 158 166 226 268 288 36 36 2 317 306 317 13 329 274 310 44 349 165 153 159 264 51 184 218 288 194 58 142 143 179 219 258 218 201 187 185 187 177 182 189
309 325 136 146 104 136 165 192 317 302 36 289 234 221 236 9 306 254 248 236 25 334 3 323 179 255 244 248 245 208 212 160 142 263 244 177 257 216 201 191 180 173 185 192 195
284 265 176 212 176 258 268 245 223 275 266 262 283 216 78 250 276 222 244 319 342 24 73 302 341 353 340 345 29 212 211 178 130 92 198 192 260 348 135 153 175 181 190 195 197
301 336 226 201 210 158 155 267 261 300 278 243 259 289 14 345 227 293 326 341 348 334 310 206 172 180 212 237 294 248 215 188 162 148 224 219 242 235 163 164 175 188 194 195 195
252 266 327 288 43 128 140 332 285 303 256 0 83 79 91 303 313 130 22 325 320 330 315 174 217 193 245 253 269 247 233 193 182 207 190 253 207 231 189 182 186 192 183 183 189
188 328 325 295 303 197 164 203 217 289 304 292 55 1 152 198 314 310 16 342 253 317 10 326 283 293 282 284 336 282 243 237 230 175 239 248 256 219 202 182 169 181 180 182 182
185 250 295 298 321 132 187 100 64 29 259 51 143 251 208 180 312 289 273 249 243 259 254 257 213 1 271 335 319 292 230 228 227 192 174 210 230 144 168 179 185 183 183 183 188
Height
1555 1553 1551 1549 1547 1544 1542 1541 1538 1536 1535 1533 1531 1530 1528 1526 1525 1523 1520 1523 1523 1523 1526 1527 1529 1530 1530 1531 1532 1534 1546 1553 1544 1539 1534 1533 1532 1532 1533 1531 1527 1525 1525 1529 1535
1554 1552 1550 1548 1545 1543 1541 1538 1536 1535 1533 1531 1530 1528 1526 1523 1522 1519 1518 1517 1519 1521 1523 1526 1527 1529 1529 1529 1530 1532 1546 1537 1528 1527 1531 1530 1531 1531 1534 1532 1526 1521 1523 1527 1529
1553 1551 1548 1545 1543 1541 1538 1536 1534 1532 1530 1529 1528 1526 1524 1522 1520 1515 1515 1515 1515 1518 1521 1523 1525 1527 1528 1528 1528 1529 1535 1523 1522 1526 1526 1527 1530 1531 1533 1535 1521 1516 1521 1523 1528
1552 1549 1546 1543 1541 1538 1536 1534 1532 1529 1528 1527 1526 1524 1523 1522 1524 1514 1514 1515 1515 1516 1519 1521 1524 1526 1527 1527 1525 1528 1522 1521 1518 1520 1522 1524 1525 1526 1526 1518 1519 1520 1516 1520 1525
1550 1547 1544 1541 1538 1536 1534 1532 1529 1527 1525 1524 1523 1522 1522 1520 1512 1514 1513 1514 1515 1515 1517 1520 1522 1524 1526 1524 1524 1524 1519 1518 1515 1516 1514 1517 1518 1521 1518 1518 1521 1521 1520 1522 1525
1548 1545 1542 1539 1536 1533 1531 1529 1527 1524 1523 1521 1521 1520 1520 1519 1511 1511 1512 1513 1514 1515 1516 1518 1519 1521 1523 1522 1522 1518 1516 1513 1511 1508 1509 1512 1518 1521 1509 1515 1518 1519 1517 1524 1528
1545 1543 1540 1537 1533 1531 1528 1526 1523 1521 1520 1519 1518 1517 1516 1509 1509 1509 1510 1512 1513 1514 1515 1516 1519 1520 1522 1519 1518 1517 1518 1511 1506 1508 1510 1512 1523 1517 1508 1512 1513 1515 1522 1527 1527
1544 1541 1538 1535 1531 1528 1525 1522 1520 1519 1517 1516 1516 1515 1510 1506 1505 1506 1509 1511 1512 1512 1514 1516 1519 1521 1520 1518 1517 1518 1521 1528 1509 1506 1507 1511 1522 1507 1508 1509 1507 1512 1520 1522 1522
1543 1540 1537 1533 1530 1526 1523 1520 1517 1516 1515 1515 1514 1513 1506 1503 1502 1505 1507 1509 1511 1511 1513 1517 1519 1519 1518 1522 1530 1530 1535 1526 1518 1506 1509 1514 1511 1498 1500 1502 1503 1510 1513 1518 1518
1541 1538 1536 1532 1528 1525 1522 1519 1517 1515 1515 1514 1512 1515 1503 1502 1501 1501 1504 1508 1509 1511 1513 1516 1517 1519 1523 1529 1548 1536 1532 1528 1527 1509 1506 1508 1504 1489 1493 1496 1499 1507 1511 1511 1510
1539 1537 1534 1531 1528 1525 1524 1521 1521 1518 1514 1511 1509 1505 1500 1500 1500 1500 1502 1505 1508 1510 1513 1513 1520 1528 1523 1522 1522 1524 1529 1532 1517 1508 1513 1507 1503 1491 1494 1497 1500 1502 1506 1506 1510
1538 1535 1533 1531 1528 1527 1525 1524 1528 1529 1513 1504 1499 1497 1496 1500 1502 1497 1501 1504 1506 1512 1510 1516 1523 1515 1515 1517 1520 1522 1527 1527 1516 1506 1510 1503 1501 1490 1492 1492 1493 1498 1499 1501 1508
1536 1534 1531 1530 1528 1528 1527 1527 1526 1524 1518 1493 1490 1489 1489 1496 1497 1494 1498 1499 1501 1509 1511 1519 1513 1508 1514 1517 1521 1522 1525 1523 1524 1509 1505 1504 1510 1503 1496 1495 1497 1500 1501 1504 1505
1534 1533 1530 1529 1530 1527 1527 1527 1526 1524 1527 1499 1489 1485 1486 1491 1493 1491 1495 1499 1501 1507 1510 1513 1505 1507 1512 1517 1518 1529 1511 1514 1516 1519 1531 1509 1539 1513 1505 1502 1498 1499 1500 1504 1508
1533 1530 1528 1527 1527 1527 1527 1525 1524 1525 1542 1489 1487 1487 1486 1489 1488 1487 1490 1495 1499 1501 1506 1510 1504 1508 1512 1510 1511 1516 1507 1510 1510 1516 1518 1517 1531 1522 1511 1508 1501 1498 1500 1503 1506
1529 1528 1525 1525 1525 1526 1525 1524 1525 1536 1537 1494 1488 1489 1491 1489 1486 1485 1487 1492 1495 1498 1500 1502 1499 1500 1502 1500 1504 1501 1504 1510 1521 1524 1540 1520 1527 1526 1519 1504 1499 1496 1497 1500 1504
1525 1524 1522 1523 1524 1523 1524 1524 1537 1542 1503 1500 1496 1492 1489 1489 1488 1485 1489 1494 1503 1513 1515 1505 1501 1497 1498 1501 1498 1503 1519 1544 1542 1544 1546 1518 1529 1513 1497 1492 1488 1489 1491 1495 1501
1521 1519 1518 1518 1519 1522 1524 1527 1538 1515 1512 1499 1499 1492 1493 1489 1487 1488 1492 1500 1496 1500 1515 1519 1522 1496 1493 1497 1504 1505 1515 1542 1547 1550 1537 1521 1526 1505 1495 1486 1486 1491 1497 1501 1502
1517 1515 1513 1513 1513 1518 1523 1539 1529 1517 1510 1509 1500 1500 1501 1496 1495 1491 1495 1497 1491 1492 1510 1518 1513 1486 1486 1486 1492 1500 1513 1501 1521 1529 1535 1524 1504 1496 1493 1488 1490 1494 1499 1505 1507
1514 1512 1511 1511 1511 1516 1523 1527 1519 1512 1511 1510 1513 1508 1512 1508 1502 1501 1496 1488 1489 1489 1490 1496 1511 1486 1482 1485 1487 1491 1492 1511 1525 1532 1538 1528 1511 1509 1500 1496 1495 1495 1497 1503 1507
1516 1512 1511 1510 1513 1515 1525 1524 1514 1512 1512 1513 1514 1512 1509 1509 1506 1504 1500 1490 1486 1489 1487 1491 1501 1484 1484 1491 1494 1496 1499 1504 1511 1522 1534 1539 1523 1483 1482 1484 1485 1490 1494 1498 1502
1514 1515 1511 1512 1517 1517 1520 1515 1513 1509 1511 1512 1510 1508 1510 1507 1509 1506 1503 1491 1491 1491 1492 1490 1502 1504 1490 1476 1478 1481 1488 1495 1519 1515 1520 1520 1511 1470 1470 1472 1482 1489 1493 1495 1499
1513 1513 1514 1513 1519 1519 1514 1512 1510 1511 1510 1510 1508 1506 1505 1509 1513 1505 1499 1492 1491 1491 1493 1490 1505 1517 1503 1484 1480 1482 1480 1483 1494 1502 1512 1517 1507 1470 1469 1476 1481 1485 1488 1492 1497
1516 1514 1510 1510 1508 1510 1513 1513 1512 1509 1508 1508 1506 1504 1506 1508 1506 1507 1503 1495 1492 1492 1489 1489 1500 1503 1514 1499 1488 1484 1476 1477 1484 1508 1497 1497 1482 1475 1476 1475 1478 1482 1483 1487 1492
1516 1514 1514 1511 1511 1508 1508 1512 1512 1511 1506 1506 1506 1509 1509 1513 1511 1508 1509 1506 1498 1493 1490 1491 1498 1495 1489 1486 1481 1476 1471 1472 1479 1478 1490 1472 1479 1465 1465 1466 1466 1465 1480 1488 1492
1514 1515 1514 1511 1510 1508 1507 1510 1510 1511 1510 1507 1509 1511 1510 1512 1512 1516 1515 1514 1509 1496 1499 1495 1497 1489 1488 1478 1476 1474 1464 1462 1466 1467 1468 1467 1468 1456 1457 1465 1469 1469 1474 1482 1486
1513 1514 1515 1510 1509 1509 1506 1508 1509 1511 1510 1508 1509 1510 1510 1509 1510 1509 1507 1506 1505 1504 1504 1502 1498 1496 1497 1480 1477 1477 1455 1455 1456 1454 1455 1466 1455 1455 1458 1457 1459 1464 1467 1471 1476